www.pogodaiklimat.ru

Погода и климат >> Архив погоды >> Мексика >> Кампече


ПОГОДА в Кампече

  • Прогноз погоды в Кампече
  • Монитор погоды в Кампече

АРХИВ ПОГОДЫ в Кампече

Время (UTC), дата Ветер
(напр.,м/с)
 
Видим.   Явления Облачность Т
(С)
Тd
(С)
f
(%)
Тe
(С)
Тes
(С)
Комфортность P
(гПа)
Po
(гПа)
Тmin
(С)
Tmax
(С)
R
(мм)
R24
(мм)
S
(см)
06 10.09 В 2 6000 м 5/0
[Cs]
+26.6 +25.5 94 +39 +39 очень
душно
1014.8 1014.2 +22.6 +35.0 0.3
09 10.09 В 2 6000 м 3/0
[Cs]
+25.6 +24.8 95 +36 +36 очень
душно
1014.0 1013.4
12 10.09 В 1 10 км 1/0
[Ci fib]
+25.0 +24.5 97 +35 +35 очень
душно
1014.1 1013.5 +24.8 +35.0
15 10.09 В 1 10 км 4/4 360 м
[Cu med, cong]
+30.1 +27.1 84 +48 +55 опасность
перегрева
1015.9 1015.3
18 10.09 ЮВ 1 10 км 4/4 450 м
[Cu med, cong]
+33.8 +29.3 77 +58 +72 опасность
перегрева
1014.5 1014.3 +24.8 +34.6
21 10.09 СЗ 1 10 км 3/3 360 м
[Cu med, cong]
+32.7 +29.0 81 +56 +65 опасность
перегрева
1012.4 1011.8
03 11.09 В 2 6000 м 10/0
[As op]
+25.2 +24.1 94 +35 +35 очень
душно
1014.9 1014.3
06 11.09 СВ 2 6000 м 8/0
[Cc]
+25.2 +24.4 95 +35 +35 очень
душно
1014.6 1014.0 +24.8 +35.0
09 11.09 ЮВ 1 6000 м 5/0
[Ac trans]
+24.2 +23.7 97 +33 +33 очень
душно
1014.5 1013.9
12 11.09 В 2 10 км 3/0
[Ac trans]
+24.8 +24.3 97 +34 +34 очень
душно
1014.7 1014.1 +23.5 +35.0
15 11.09 В 1 10 км 6/6 210 м
[Cu hum]
+30.1 +27.9 88 +50 +54 опасность
перегрева
1016.0 1015.4
18 11.09 В 1 10 км 5/5 700 м
[Cu med, cong]
+32.8 +27.6 74 +52 +64 опасность
перегрева
1013.6 1013.1 +23.5 +34.2
03 12.09 штиль 0 6000 м слаб. морось 10/0
[As op]
+25.0 +23.9 94 +34 +34 очень
душно
1014.2 1013.7 2
06 12.09 В 1 6000 м 9/0
[Cs]
+24.7 +24.0 96 +34 +34 очень
душно
1013.6 1013.0 +23.5 +35.1
09 12.09 В 1 6000 м 5/0
[Cs]
+24.0 +23.2 95 +32 +32 очень
душно
1012.1 1011.5
12 12.09 ЮВ 2 10 км 4/0
[Ac trans Ci fib]
+22.7 +21.6 94 +30 +30 очень
душно
1012.7 1012.1 +23.2 +35.1
15 12.09 СВ 1 10 км ясно +29.2 +26.0 83 +44 +56 опасность
перегрева
1013.0 1012.5
18 12.09 С 1 10 км 5/5 500 м
[Cu med, cong]
+32.0 +28.1 80 +53 +65 опасность
перегрева
1012.5 1012.0 +23.2 +33.6
21 12.09 СЗ 3 10 км 4/3 480 м
[Cu med, cong Cs]
+31.6 +28.0 81 +52 +58 опасность
перегрева
1010.1 1009.5
12 13.09 В 2 10 км 8/8 90 м
[St]
+23.4 +22.8 96 +33 +33 очень
душно
1012.3 1011.7 +23.2 +33.8
15 13.09 СВ 1 10 км 3/0
[Ac trans]
+28.1 +25.3 85 +41 +51 опасность
перегрева
1013.8 1013.2
18 13.09 СЗ 2 10 км 6/6 330 м
[Cu med, cong]
+30.6 +27.5 84 +49 +58 опасность
перегрева
1013.2 1012.6 +23.2 +31.1
21 13.09 С 2 10 км 1/1 270 м
[Cu med, cong]
+31.4 +29.2 88 +55 +64 опасность
перегрева
1010.4 1009.8
00 14.09 С 2 10 км 5/1 480 м
[Cu med, cong Ac trans Ci fib]
+29.9 +26.5 82 +46 +46 опасность
перегрева
1011.0 1010.5 +23.2 +32.1
03 14.09 ЮВ 1 6000 м 4/0
[Ac trans]
+25.0 +23.6 92 +34 +34 очень
душно
1013.9 1013.3
12 14.09 штиль 0 10 км 8/8 900 м
[Sc]
+23.2 +22.6 96 +32 +32 очень
душно
1012.6 1012.0 +22.8 +32.1
15 14.09 С 1 10 км 3/1 900 м
[Sc Ci fib]
+29.1 +24.8 78 +42 +52 опасность
перегрева
1013.9 1013.4
18 14.09 СЗ 2 10 км 5/5 500 м
[Cu med, cong]
+31.2 +26.2 75 +47 +57 опасность
перегрева
1013.4 1012.8 +22.8 +32.2
21 14.09 С 2 10 км 6/0
[Ac trans]
+31.0 +26.8 78 +48 +55 опасность
перегрева
1011.4 1010.8
12 15.09 ЮВ 1 10 км 4/0
[Ac und Ci fib]
+23.8 +23.2 96 +32 +32 очень
душно
1012.8 1012.2 +23.4 +33.1
15 15.09 ЮВ 1 10 км 5/0
[Cs]
+31.0 +27.1 80 +49 +59 опасность
перегрева
1013.9 1013.4
18 15.09 З 2 10 км 8/1 600 м
[Cu med, cong Cs]
+31.5 +27.9 81 +51 +67 опасность
перегрева
1013.1 1012.5 +23.4 +33.6
21 15.09 З 3 10 км 6/1 600 м
[Cu med, cong Cs]
+31.6 +27.7 80 +51 +58 опасность
перегрева
1011.5 1010.9
00 16.09 С 3 10 км 4/1 600 м
[Cu med, cong Ci ing]
+29.6 +27.0 86 +47 +47 опасность
перегрева
1011.9 1011.4 +23.4 +33.6
03 16.09 С 1 6000 м 1/0
[Ac trans]
+28.8 +26.4 87 +44 +44 опасность
перегрева
1013.3 1012.7
12 16.09 штиль 0 10 км 9/0
[Ac und]
+24.6 +24.1 97 +34 +34 очень
душно
1014.2 1013.7 +24.4 +33.6
15 16.09 ЮВ 1 10 км 6/0
[Cs]
+29.6 +26.7 84 +46 +56 опасность
перегрева
1015.4 1014.8
00 17.09 СЗ 4 10 км 5/4 330 м
[Cb calv Ci ing]
+29.8 +27.2 86 +47 +47 опасность
перегрева
1011.3 1010.7 +24.4 +35.4

 

Местоположение метеостанции Кампече (Мексика): широта 19.85 долгота -90.55 высота над уровнем моря 5 м.

В архиве по умолчанию представлена погода в Кампече за последнюю неделю. Архивные данные за месяц целиком и за предыдущие месяцы, начиная с января 2011 года, Вы можете получить, выбрав интересующий диапазон дат из раскрывающегося списка и нажав кнопку "Ввод!".


*Определитесь, кто Вы:
робот инопланетянин человек

Внимание! Время в таблицах - всемирное. Для получения местного времени необходимо прибавить поправку, которая равна -6 ч.

Смотрите также архив погоды в соседних городах и на ближайших метеорологических станциях:

Погода в Мериде 2 (Мексика) (156 км)
Погода в Мериде (Мексика) (157 км)
Погода в Прогресо (Мексика) (187 км)
Погода в Вальядолиде (Мексика) (262 км)
Погода в Фелипе-Каррильо-Пуэрто (Мексика) (278 км)
Погода в Четумале (Мексика) (281 км)
Погода в Вильяэрмосе (Мексика) (326 км)
Погода во Флоресе (Гватемала) (333 км)
Погода в Белизе (Белиз) (350 км)
Погода в Сан-Кристобаль-де-лас-Касасе (Мексика) (409 км)

Пояснения к столбцам:

Ветер - указаны скорость ветра в м/с - средняя за 10 мин, порывы в срок и между сроками (в фигурных скобках) и направление, откуда дует ветер: С - северный, СВ - северо-восточный, В - восточный, ЮВ - юго-восточный, Ю - южный, ЮЗ - юго-западный, З - западный, СЗ - северо-западный.
Видимость - горизонтальная дальность видимости в метрах или километрах. При видимости от 1 до 10 км при отсутствии осадков обычно наблюдается дымка, при ухудшении видимости до 1 км и менее - туман. В сухую погоду видимость может ухудшаться дымом, пылью или мглою.
Явления - указаны атмосферные явления, наблюдавшиеся в срок или в последний час перед сроком; фигурными скобками обозначены явления, наблюдавшиеся между сроками (за 1-3 часа до срока); квадратными скобками обозначены град или гололедные отложения с указанием их диаметра в мм.
Облачность - указаны через наклонную черту общая и нижняя облачность в баллах и высота нижней границы облаков в метрах; квадратными скобками обозначены формы облаков: Ci - перистые, Cs - перисто-слоистые, Cc - перисто-кучевые, Ac - высококучевые, As - высокослоистые, Sc - слоисто-кучевые, Ns - слоисто-дождевые, Cu - кучевые, Cb - кучево-дождевые. Подробнее классификацию облаков см. в Атласе облаков (PDF).
T - Температура воздуха - температура, измеренная на высоте 2 м над землей.
Td - Температура точки росы - температура, при понижении до которой содержащийся в воздухе водяной пар достигнет насыщения.
f - Относительная влажность воздуха - влажноcть воздуха, измеренная на высоте 2 м над землей.
Te - Эффективная температура - температура, которую ощущает одетый по сезону человек в тени. Характеристика душности погоды. При расчете учитывается влияние влажности воздуха и скорости ветра на теплоощущения человека.
Tes - Эффективная температура на солнце - температура, которую ощущает человек, с поправкой на солнечный нагрев. Характеристика знойности погоды. Зависит от высоты солнца над горизонтом, облачности и скорости ветра. Ночью, в пасмурную погоду, а также при ветре 12 м/с и более поправка равна нулю.
P - Атмосферное давление - приведенное к уровню моря атмосферное давление.
Po - Атмосферное давление - измеренное на уровне метеостанции атмосферное давление.
Tmin - Минимальная температура - минимум температуры воздуха на высоте 2 м над землей.
Tmax - Максимальная температура - максимум температуры воздуха на высоте 2 м над землей.
R - Количество осадков - Количество выпавших осадков за период времени, мм. При наведении курсора мыши на число - период времени, за который выпало указанное количество осадков.
R24 - Количество осадков - Количество выпавших осадков за 24 часа, мм.
S - Снежный покров - Высота снежного покрова, см. При наведении курсора мыши на число - состояние снежного покрова и степень покрытия местности в баллах.